User: anonymous   Login
Location: Vancouver
(49.2500°N, 123.1330°W)
Time: 14:39:10
(UTC-07:00)
Language:

Transit 2A Rocket - Orbit

View from above orbital plane
View from above orbital plane
View from above satellite
View from above satellite

Ground track
Ground track

The orbit data is extracted from the following two-line orbital elements,

1 00047U 60007C   18114.37985964 -.00000033  00000-0  17714-4 0  9991
2 00047  66.6647  93.9814 0225076 159.4487 201.5855 14.41978755 21934
Epoch (UTC): 24 April 2018 09:06:59
Eccentricity: 0.0225076
inclination: 66.6647°
perigee height: 591 km
apogee height: 912 km
right ascension of ascending node: 93.9814°
argument of perigee: 159.4487°
revolutions per day: 14.41978755
mean anomaly at epoch: 201.5855°
orbit number at epoch: 2193

The dashed part of the orbit path shows where the satellite is in the earth's shadow,  

DLR